Tiempo cada hora Muratovka

Hoy, 25 Octubre, Domingo

Tiempo Temperatura Precipitaciones Viento Presión Humedad
00:00 +9°C° 0 mm 2 mps 746 mmHg 89%
01:00 +9°C° 1.1 mm 2 mps 745 mmHg 92%
02:00 +10°C° 1.1 mm 1 mps 745 mmHg 94%
03:00 +9°C° 1.1 mm 1 mps 745 mmHg 97%
04:00 +8°C° 2.9 mm 2 mps 745 mmHg 97%
05:00 +8°C° 2.9 mm 3 mps 745 mmHg 96%
06:00 +8°C° 2.9 mm 3 mps 744 mmHg 96%
07:00 +7°C° 0.3 mm 4 mps 745 mmHg 94%
08:00 +7°C° 0.3 mm 4 mps 746 mmHg 92%
09:00 +8°C° 0.3 mm 4 mps 746 mmHg 90%
10:00 +8°C° 0.1 mm 4 mps 747 mmHg 86%
11:00 +9°C° 0.1 mm 5 mps 748 mmHg 82%
12:00 +9°C° 0.1 mm 5 mps 748 mmHg 78%
13:00 +9°C° 0.1 mm 5 mps 749 mmHg 77%
14:00 +9°C° 0.1 mm 5 mps 749 mmHg 75%
15:00 +9°C° 0.1 mm 5 mps 750 mmHg 73%
16:00 +8°C° 0 mm 4 mps 750 mmHg 78%
17:00 +7°C° 0 mm 4 mps 750 mmHg 82%
18:00 +7°C° 0 mm 3 mps 751 mmHg 86%
19:00 +7°C° 0 mm 3 mps 751 mmHg 88%
20:00 +7°C° 0 mm 3 mps 752 mmHg 90%
21:00 +6°C° 0 mm 2 mps 752 mmHg 92%
22:00 +6°C° 0 mm 2 mps 753 mmHg 92%
23:00 +6°C° 0 mm 2 mps 753 mmHg 93%

Mañana, 26 Octubre, Lunes

Tiempo Temperatura Precipitaciones Viento Presión Humedad
00:00 +6°C° 0 mm 2 mps 753 mmHg 93%
01:00 +6°C° 0 mm 2 mps 753 mmHg 92%
02:00 +7°C° 0 mm 2 mps 754 mmHg 91%
03:00 +7°C° 0 mm 2 mps 754 mmHg 90%
04:00 +7°C° 0 mm 3 mps 754 mmHg 91%
05:00 +5°C° 0 mm 3 mps 755 mmHg 91%
06:00 +5°C° 0 mm 3 mps 755 mmHg 91%
07:00 +5°C° 0 mm 3 mps 755 mmHg 89%
08:00 +7°C° 0 mm 3 mps 755 mmHg 86%
09:00 +7°C° 0 mm 3 mps 755 mmHg 84%
10:00 +8°C° 0 mm 3 mps 756 mmHg 79%
11:00 +9°C° 0 mm 2 mps 756 mmHg 74%
12:00 +12°C° 0 mm 2 mps 756 mmHg 69%
13:00 +12°C° 0 mm 2 mps 756 mmHg 68%
14:00 +12°C° 0 mm 2 mps 757 mmHg 67%
15:00 +12°C° 0 mm 2 mps 757 mmHg 66%
16:00 +10°C° 0 mm 2 mps 757 mmHg 72%
17:00 +10°C° 0 mm 1 mps 757 mmHg 78%
18:00 +9°C° 0 mm 1 mps 757 mmHg 84%
19:00 +8°C° 0 mm 1 mps 758 mmHg 87%
20:00 +7°C° 0 mm 2 mps 758 mmHg 89%
21:00 +6°C° 0 mm 2 mps 758 mmHg 92%
22:00 +6°C° 0 mm 2 mps 759 mmHg 92%
23:00 +5°C° 0 mm 2 mps 759 mmHg 92%

Pasado mañana, 27 Octubre, Martes

Tiempo Temperatura Precipitaciones Viento Presión Humedad
00:00 +5°C° 0 mm 2 mps 759 mmHg 93%
01:00 +5°C° 0 mm 2 mps 759 mmHg 92%
02:00 +4°C° 0 mm 2 mps 759 mmHg 92%
03:00 +4°C° 0 mm 2 mps 759 mmHg 92%
04:00 +4°C° 0 mm 2 mps 760 mmHg 91%
05:00 +4°C° 0 mm 2 mps 760 mmHg 90%
06:00 +4°C° 0 mm 2 mps 760 mmHg 89%
07:00 +4°C° 0 mm 2 mps 760 mmHg 87%
08:00 +3°C° 0 mm 3 mps 760 mmHg 84%
09:00 +4°C° 0 mm 3 mps 760 mmHg 81%
10:00 +5°C° 0 mm 3 mps 761 mmHg 79%
11:00 +7°C° 0 mm 3 mps 761 mmHg 76%
12:00 +8°C° 0 mm 3 mps 761 mmHg 73%
13:00 +8°C° 0 mm 3 mps 761 mmHg 72%
14:00 +9°C° 0 mm 3 mps 761 mmHg 71%
15:00 +9°C° 0 mm 3 mps 761 mmHg 70%
16:00 +8°C° 0 mm 3 mps 761 mmHg 75%
17:00 +7°C° 0 mm 3 mps 761 mmHg 79%
18:00 +5°C° 0 mm 3 mps 761 mmHg 83%
19:00 +5°C° 0 mm 3 mps 761 mmHg 84%
20:00 +4°C° 0 mm 3 mps 761 mmHg 85%
21:00 +4°C° 0 mm 3 mps 761 mmHg 85%
22:00 +4°C° 0 mm 3 mps 761 mmHg 85%
23:00 +4°C° 0 mm 3 mps 761 mmHg 84%

28 Octubre, Miércoles

Tiempo Temperatura Precipitaciones Viento Presión Humedad
00:00 +3°C° 0 mm 3 mps 761 mmHg 83%
01:00 +3°C° 0 mm 3 mps 761 mmHg 83%
02:00 +3°C° 0 mm 3 mps 761 mmHg 83%
03:00 +3°C° 0 mm 3 mps 761 mmHg 83%
04:00 +3°C° 0 mm 3 mps 761 mmHg 82%
05:00 +3°C° 0 mm 3 mps 761 mmHg 82%
06:00 +2°C° 0 mm 3 mps 761 mmHg 81%
07:00 +3°C° 0 mm 3 mps 761 mmHg 77%
08:00 +3°C° 0 mm 4 mps 761 mmHg 74%
09:00 +4°C° 0 mm 4 mps 761 mmHg 70%
10:00 +5°C° 0 mm 4 mps 762 mmHg 65%
11:00 +6°C° 0 mm 5 mps 762 mmHg 61%
12:00 +7°C° 0 mm 5 mps 762 mmHg 56%
13:00 +7°C° 0 mm 5 mps 762 mmHg 55%
14:00 +8°C° 0 mm 4 mps 761 mmHg 54%
15:00 +8°C° 0 mm 4 mps 761 mmHg 53%
16:00 +7°C° 0 mm 4 mps 761 mmHg 57%
17:00 +5°C° 0 mm 4 mps 761 mmHg 61%
18:00 +4°C° 0 mm 3 mps 761 mmHg 65%
19:00 +4°C° 0 mm 3 mps 761 mmHg 64%
20:00 +3°C° 0 mm 3 mps 761 mmHg 63%
21:00 +3°C° 0 mm 4 mps 761 mmHg 62%
22:00 +2°C° 0 mm 3 mps 761 mmHg 61%
23:00 +2°C° 0 mm 3 mps 761 mmHg 59%

29 Octubre, Jueves

Tiempo Temperatura Precipitaciones Viento Presión Humedad
00:00 +2°C° 0 mm 3 mps 761 mmHg 58%
01:00 +1°C° 0 mm 3 mps 761 mmHg 59%
02:00 +1°C° 0 mm 3 mps 761 mmHg 60%
03:00 0°C° 0 mm 3 mps 761 mmHg 61%
04:00 0°C° 0 mm 3 mps 761 mmHg 63%
05:00 0°C° 0 mm 3 mps 761 mmHg 65%
06:00 -1°C° 0 mm 3 mps 761 mmHg 66%
07:00 -1°C° 0 mm 4 mps 761 mmHg 65%
08:00 -1°C° 0 mm 4 mps 761 mmHg 64%
09:00 0°C° 0 mm 5 mps 761 mmHg 62%
10:00 +1°C° 0 mm 5 mps 761 mmHg 59%
11:00 +3°C° 0 mm 5 mps 761 mmHg 56%
12:00 +5°C° 0 mm 5 mps 761 mmHg 53%
13:00 +6°C° 0 mm 5 mps 760 mmHg 52%
14:00 +6°C° 0 mm 5 mps 760 mmHg 51%
15:00 +7°C° 0 mm 5 mps 759 mmHg 49%
16:00 +6°C° 0 mm 4 mps 759 mmHg 53%
17:00 +4°C° 0 mm 4 mps 759 mmHg 56%
18:00 +3°C° 0 mm 3 mps 759 mmHg 59%
19:00 +4°C° 0 mm 3 mps 759 mmHg 58%
20:00 +4°C° 0 mm 4 mps 759 mmHg 57%
21:00 +4°C° 0 mm 4 mps 759 mmHg 56%
22:00 +4°C° 0 mm 4 mps 758 mmHg 55%
23:00 +4°C° 0 mm 4 mps 758 mmHg 54%

30 Octubre, Viernes

Tiempo Temperatura Precipitaciones Viento Presión Humedad
00:00 +4°C° 0 mm 4 mps 758 mmHg 54%
01:00 +4°C° 0 mm 4 mps 758 mmHg 55%
02:00 +4°C° 0 mm 4 mps 757 mmHg 56%
03:00 +3°C° 0 mm 4 mps 757 mmHg 58%
04:00 +3°C° 0 mm 4 mps 757 mmHg 60%
05:00 +3°C° 0 mm 3 mps 757 mmHg 61%
06:00 +3°C° 0 mm 3 mps 757 mmHg 63%
07:00 +3°C° 0 mm 4 mps 757 mmHg 63%
08:00 +3°C° 0 mm 4 mps 756 mmHg 63%
09:00 +4°C° 0 mm 4 mps 756 mmHg 63%
10:00 +5°C° 0 mm 4 mps 756 mmHg 62%
11:00 +5°C° 0 mm 4 mps 756 mmHg 60%
12:00 +7°C° 0 mm 3 mps 756 mmHg 58%
13:00 +8°C° 0 mm 3 mps 756 mmHg 59%
14:00 +8°C° 0 mm 3 mps 756 mmHg 59%
15:00 +8°C° 0 mm 3 mps 755 mmHg 60%
16:00 +7°C° 0 mm 3 mps 755 mmHg 65%
17:00 +5°C° 0 mm 3 mps 755 mmHg 70%
18:00 +4°C° 0 mm 3 mps 755 mmHg 75%
19:00 +5°C° 0 mm 2 mps 755 mmHg 78%
20:00 +5°C° 0 mm 2 mps 755 mmHg 80%
21:00 +5°C° 0 mm 2 mps 755 mmHg 82%
22:00 +5°C° 0 mm 2 mps 755 mmHg 83%
23:00 +4°C° 0 mm 2 mps 755 mmHg 85%
Mostrar más

Necesitamos Su Consentimiento

Meteoprog y nuestros Proveedores de Servicios pueden almacenar y acceder a sus datos personales como cookies, identificadores de dispositivo u otras tecnologías similares de su dispositivo y procesar dichos datos para personalizar contenido y anuncios, además de ofrecer funciones de redes sociales y analizar el tráfico.

  • Almacenar y/o acceder a información en su dispositivo

    Se puede almacenar o acceder a cookies, identificadores de dispositivo u otra información de su dispositivo para los fines anteriormente indicados.

  • Anuncios y contenido personalizados, medición de anuncios y contenido, percepciones del público, y desarrollo de productos

    Los anuncios y el contenido pueden personalizarse en base a su perfil. Se pueden añadir más datos para personalizar mejor los anuncios y contenidos. Se puede medir el rendimiento de los anuncios y contenidos. Se puede obtener la percepción sobre el público que ha visto los anuncios y contenidos. Dichos datos pueden usarse para desarrollar o mejorar la experiencia del usuario, sistemas y software.

Al hacer clic en ‘Estoy De Acuerdo’ usted permitirá el uso de las cookies, identificadores de dispositivo, balizas web u otras tecnologías similares indicadas. Su configuración puede cambiarse desde el navegador de su dispositivo.

Para ciertos fines, los intereses legítimos pueden ser considerados por encima del consentimiento. Puede leer más sobre ello en nuestra Política de Privacidad y Cookies.